"Date","subscriberCount","subscriberChange","viewCount","viewChange","videoCount","videoChange","commentCount","commentChange"
"2021-02-14 00:02:02","472000","0","353183313","267427","497","1","","0"
"2021-02-15 00:02:01","473000","1000","353763165","579852","498","1","","0"
"2021-02-16 00:02:02","474000","1000","354339663","576498","499","1","","0"
"2021-02-17 00:02:01","474000","0","354903397","563734","500","1","","0"
"2021-02-18 00:02:02","475000","1000","355607147","703750","502","2","","0"
"2021-02-19 00:02:02","475000","0","356170561","563414","500","-2","","0"
"2021-02-20 00:02:02","476000","1000","356561789","391228","501","1","","0"
"2021-02-21 00:02:02","476000","0","356790359","228570","503","2","","0"
"2021-02-22 00:02:02","477000","1000","357611915","821556","502","-1","","0"
"2021-02-23 00:02:02","478000","1000","357925447","313532","503","1","","0"
"2021-02-24 00:02:02","479000","1000","358682630","757183","504","1","","0"
"2021-02-25 00:02:01","479000","0","359134128","451498","505","1","","0"
"2021-02-26 00:02:02","480000","1000","359568086","433958","505","0","","0"
"2021-02-27 00:02:01","480000","0","360164043","595957","505","0","","0"
"2021-02-28 00:02:02","481000","1000","360641854","477811","506","1","","0"
"2021-03-01 00:02:01","481000","0","361313192","671338","506","0","","0"
"2021-03-02 00:02:02","482000","1000","361703602","390410","507","1","","0"
"2021-03-03 00:02:02","482000","0","362159602","456000","508","1","","0"
"2021-03-04 00:02:01","483000","1000","362864952","705350","509","1","","0"
"2021-03-05 00:02:02","484000","1000","363043065","178113","509","0","","0"
"2021-03-06 00:02:02","484000","0","363686432","643367","510","1","","0"
"2021-03-07 00:02:02","485000","1000","364217151","530719","511","1","","0"
"2021-03-08 00:02:02","486000","1000","364955503","738352","512","1","","0"
"2021-03-09 00:02:01","486000","0","365687496","731993","512","0","","0"
"2021-03-10 00:02:02","487000","1000","366296701","609205","513","1","","0"
"2021-03-11 00:02:01","487000","0","366760866","464165","514","1","","0"
"2021-03-12 00:02:02","488000","1000","367315057","554191","515","1","","0"
"2021-03-13 00:02:02","489000","1000","367885922","570865","516","1","","0"
"2021-03-14 00:02:02","489000","0","368583962","698040","516","0","","0"
"2021-03-15 00:02:02","490000","1000","369280900","696938","515","-1","","0"
"2021-03-16 00:02:01","490000","0","369907289","626389","516","1","","0"
"2021-03-17 00:02:02","491000","1000","370271117","363828","517","1","","0"
"2021-03-18 00:02:01","493000","2000","370708520","437403","518","1","","0"
"2021-03-19 00:02:02","494000","1000","372290693","1582173","519","1","","0"
"2021-03-20 00:02:01","496000","2000","373246116","955423","519","0","","0"
"2021-03-21 00:02:02","497000","1000","374275220","1029104","520","1","","0"
"2021-03-22 00:02:02","498000","1000","375112427","837207","521","1","","0"
"2021-03-23 00:02:02","499000","1000","376055363","942936","522","1","","0"
"2021-03-24 00:02:02","500000","1000","376788602","733239","523","1","","0"
"2021-03-25 00:02:01","501000","1000","377539883","751281","523","0","","0"
"2021-03-26 00:02:02","502000","1000","378440803","900920","524","1","","0"
"2021-03-27 00:02:01","503000","1000","379031228","590425","524","0","","0"
"2021-03-28 00:02:02","504000","1000","379846241","815013","526","2","","0"
"2021-03-29 00:02:02","505000","1000","380742236","895995","527","1","","0"
"2021-03-30 00:02:01","507000","2000","381958103","1215867","528","1","","0"
"2021-03-31 00:02:01","508000","1000","382929324","971221","528","0","","0"
"2021-04-01 00:02:02","508000","0","383916061","986737","529","1","","0"
"2021-04-02 00:02:02","509000","1000","384683243","767182","530","1","","0"
"2021-04-03 00:02:01","510000","1000","385378105","694862","530","0","","0"
"2021-04-04 00:02:02","511000","1000","386236984","858879","532","2","","0"
"2021-04-05 00:02:02","512000","1000","387150257","913273","532","0","","0"
"2021-04-06 00:02:02","513000","1000","388109611","959354","533","1","","0"
"2021-04-07 00:02:02","514000","1000","388800805","691194","534","1","","0"
"2021-04-08 00:02:03","514000","0","389410039","609234","534","0","","0"
"2021-04-09 00:02:02","515000","1000","390011608","601569","535","1","","0"
"2021-04-10 00:02:02","515000","0","390432869","421261","536","1","","0"
"2021-04-11 00:02:03","515000","0","390943101","510232","537","1","","0"
"2021-04-12 00:02:01","516000","1000","391649635","706534","537","0","","0"
"2021-04-13 00:02:02","516000","0","392123713","474078","538","1","","0"
"2021-04-14 00:02:02","517000","1000","392746816","623103","539","1","","0"
"2021-04-15 00:02:02","518000","1000","393270720","523904","540","1","","0"
"2021-04-16 00:02:02","518000","0","393853595","582875","539","-1","","0"
"2021-04-17 00:02:02","519000","1000","394323676","470081","540","1","","0"
"2021-04-18 00:02:02","519000","0","394802030","478354","540","0","","0"
"2021-04-19 00:02:02","520000","1000","395346756","544726","541","1","","0"
"2021-04-20 00:02:02","521000","1000","396143055","796299","541","0","","0"
"2021-04-21 00:02:02","521000","0","396714598","571543","542","1","","0"
"2021-04-22 00:02:02","522000","1000","397217497","502899","542","0","","0"
"2021-04-23 00:02:02","523000","1000","397632755","415258","542","0","","0"
"2021-04-24 00:02:02","523000","0","398107542","474787","543","1","","0"
"2021-04-25 00:02:02","524000","1000","398639900","532358","544","1","","0"
"2021-04-26 00:02:03","526000","2000","399473256","833356","545","1","","0"
"2021-04-27 00:02:02","527000","1000","400550152","1076896","546","1","","0"
"2021-04-28 00:02:02","528000","1000","401739972","1189820","546","0","","0"
"2021-04-29 00:02:02","529000","1000","402572219","832247","547","1","","0"
"2021-04-30 00:02:02","531000","2000","403312986","740767","548","1","","0"
"2021-05-01 00:02:03","531000","0","404488388","1175402","549","1","","0"
"2021-05-02 00:02:02","533000","2000","405262143","773755","550","1","","0"
"2021-05-03 00:02:03","534000","1000","406435983","1173840","551","1","","0"
"2021-05-04 00:02:03","535000","1000","407301056","865073","552","1","","0"
"2021-05-05 00:02:02","536000","1000","408559659","1258603","553","1","","0"
"2021-05-06 00:02:02","538000","2000","409649640","1089981","554","1","","0"
"2021-05-07 00:02:03","539000","1000","411040190","1390550","554","0","","0"
"2021-05-08 00:02:03","540000","1000","412023515","983325","555","1","","0"
"2021-05-09 00:02:01","541000","1000","412771941","748426","556","1","","0"
"2021-05-10 00:02:03","542000","1000","413799965","1028024","557","1","","0"
"2021-05-11 00:02:02","543000","1000","415181548","1381583","558","1","","0"
"2021-05-12 00:02:03","544000","1000","416045515","863967","558","0","","0"
"2021-05-13 00:02:02","545000","1000","416992597","947082","559","1","","0"
"2021-05-14 00:02:03","546000","1000","418004498","1011901","560","1","","0"
"2021-05-15 00:02:02","547000","1000","418636675","632177","561","1","","0"
"2021-05-16 00:02:03","548000","1000","419720296","1083621","561","0","","0"
"2021-05-17 00:02:02","549000","1000","420827913","1107617","562","1","","0"
"2021-05-18 00:02:03","550000","1000","421999882","1171969","563","1","","0"
"2021-05-19 00:02:02","551000","1000","422883391","883509","564","1","","0"
"2021-05-20 00:02:02","552000","1000","423907838","1024447","565","1","","0"
"2021-05-21 00:02:02","553000","1000","424879337","971499","565","0","","0"
"2021-05-22 00:02:02","554000","1000","425765332","885995","566","1","","0"
"2021-05-23 00:02:03","555000","1000","426456473","691141","567","1","","0"
"2021-05-24 00:02:03","555000","0","427218138","761665","567","0","","0"
"2021-05-25 00:02:03","556000","1000","427738910","520772","568","1","","0"
"2021-05-26 00:02:02","556000","0","428402963","664053","569","1","","0"
"2021-05-27 00:02:02","557000","1000","428824837","421874","569","0","","0"
"2021-05-28 00:02:02","557000","0","429466967","642130","570","1","","0"
"2021-05-29 00:02:03","558000","1000","430279586","812619","571","1","","0"
"2021-05-30 00:02:04","560000","2000","430938736","659150","571","0","","0"
"2021-05-31 00:02:02","561000","1000","431967321","1028585","572","1","","0"
"2021-06-01 00:02:03","562000","1000","432738557","771236","573","1","","0"
"2021-06-02 00:02:02","563000","1000","433756568","1018011","574","1","","0"
"2021-06-03 00:02:02","564000","1000","434531008","774440","574","0","","0"
"2021-06-04 00:02:03","565000","1000","435280994","749986","575","1","","0"
"2021-06-05 00:02:02","566000","1000","436038277","757283","575","0","","0"
"2021-06-06 00:02:02","566000","0","436946531","908254","576","1","","0"
"2021-06-07 00:02:02","568000","2000","437767234","820703","576","0","","0"
"2021-06-08 00:02:02","568000","0","438690868","923634","577","1","","0"
"2021-06-09 00:02:01","569000","1000","439479446","788578","578","1","","0"
"2021-06-10 00:02:02","570000","1000","440239917","760471","578","0","","0"
"2021-06-11 00:02:03","570000","0","440953273","713356","579","1","","0"
"2021-06-12 00:02:03","571000","1000","441567935","614662","580","1","","0"
"2021-06-13 00:02:03","572000","1000","442214725","646790","581","1","","0"
"2021-06-14 00:02:02","573000","1000","443117508","902783","582","1","","0"
"2021-06-15 00:02:03","574000","1000","444306037","1188529","582","0","","0"
"2021-06-16 00:02:02","574000","0","445074282","768245","583","1","","0"
"2021-06-17 00:02:02","575000","1000","445745043","670761","584","1","","0"
"2021-06-18 00:02:02","576000","1000","446497953","752910","585","1","","0"
"2021-06-19 00:02:02","576000","0","447292346","794393","584","-1","","0"
"2021-06-20 00:02:02","578000","2000","447977585","685239","586","2","","0"
"2021-06-21 00:02:02","579000","1000","449097977","1120392","587","1","","0"
"2021-06-22 00:02:02","580000","1000","450025784","927807","588","1","","0"
"2021-06-23 00:02:03","581000","1000","450939478","913694","589","1","","0"
"2021-06-24 00:02:02","582000","1000","451731195","791717","589","0","","0"
"2021-06-25 00:02:02","583000","1000","452590870","859675","589","0","","0"
"2021-06-26 00:02:03","584000","1000","453495422","904552","591","2","","0"
"2021-06-27 00:02:03","587000","3000","454821213","1325791","590","-1","","0"
"2021-06-28 00:02:03","590000","3000","456873391","2052178","591","1","","0"
"2021-06-29 00:02:03","591000","1000","458585732","1712341","592","1","","0"
"2021-06-30 00:02:02","593000","2000","459649781","1064049","592","0","","0"
"2021-07-01 00:02:03","594000","1000","460893445","1243664","593","1","","0"
"2021-07-02 00:02:02","595000","1000","461942363","1048918","593","0","","0"
"2021-07-03 00:02:03","596000","1000","462818545","876182","594","1","","0"
"2021-07-04 00:02:03","598000","2000","463671070","852525","595","1","","0"
"2021-07-05 00:02:03","601000","3000","464849186","1178116","596","1","","0"
"2021-07-06 00:02:03","602000","1000","466412130","1562944","597","1","","0"
"2021-07-07 00:02:02","604000","2000","467920265","1508135","597","0","","0"
"2021-07-08 00:02:03","605000","1000","469127338","1207073","598","1","","0"
"2021-07-09 00:02:03","607000","2000","470036406","909068","599","1","","0"
"2021-07-10 00:02:03","608000","1000","470950451","914045","600","1","","0"
"2021-07-11 00:02:02","609000","1000","471827162","876711","601","1","","0"
"2021-07-12 00:02:02","610000","1000","473078359","1251197","602","1","","0"
"2021-07-13 00:02:01","611000","1000","474305843","1227484","603","1","","0"
"2021-07-14 00:02:02","612000","1000","475431044","1125201","603","0","","0"
"2021-07-15 00:02:03","613000","1000","476317890","886846","604","1","","0"
"2021-07-16 00:02:03","613000","0","477049865","731975","605","1","","0"
"2021-07-17 00:02:01","614000","1000","477684518","634653","605","0","","0"
"2021-07-18 00:02:01","616000","2000","478719924","1035406","605","0","","0"
"2021-07-19 00:02:03","617000","1000","479747453","1027529","606","1","","0"
"2021-07-20 00:02:03","617000","0","480636083","888630","607","1","","0"
"2021-07-21 00:02:02","618000","1000","481262917","626834","607","0","","0"
"2021-07-22 00:02:02","618000","0","481832077","569160","608","1","","0"
"2021-07-23 00:02:02","619000","1000","482492155","660078","609","1","","0"
"2021-07-24 00:02:01","620000","1000","483219448","727293","610","1","","0"
"2021-07-25 00:02:02","620000","0","484069670","850222","610","0","","0"
"2021-07-26 00:02:02","621000","1000","484719743","650073","609","-1","","0"
"2021-07-27 00:02:01","622000","1000","485305582","585839","610","1","","0"
"2021-07-28 00:02:03","623000","1000","485761785","456203","611","1","","0"
"2021-07-29 00:02:02","624000","1000","486793762","1031977","611","0","","0"
"2021-07-30 00:02:02","626000","2000","487759172","965410","612","1","","0"
"2021-07-31 00:02:02","628000","2000","488924147","1164975","613","1","","0"
"2021-08-01 00:02:02","630000","2000","490076761","1152614","613","0","","0"
"2021-08-02 00:02:02","631000","1000","491164737","1087976","613","0","","0"
"2021-08-03 00:02:01","633000","2000","492314721","1149984","614","1","","0"
"2021-08-04 00:02:02","634000","1000","493292232","977511","614","0","","0"
"2021-08-05 00:02:01","635000","1000","494322008","1029776","615","1","","0"
"2021-08-06 00:02:02","636000","1000","495224613","902605","616","1","","0"
"2021-08-07 00:02:02","637000","1000","495934370","709757","617","1","","0"
"2021-08-08 00:02:02","638000","1000","497125215","1190845","617","0","","0"
"2021-08-09 00:02:02","639000","1000","498014951","889736","618","1","","0"
"2021-08-10 00:02:03","639000","0","498911641","896690","619","1","","0"
"2021-08-11 00:02:02","640000","1000","498911641","0","620","1","","0"
"2021-08-12 00:02:02","641000","1000","500661877","1750236","621","1","","0"
"2021-08-13 00:02:02","642000","1000","501619384","957507","622","1","","0"
"2021-08-14 00:02:03","643000","1000","502671206","1051822","623","1","","0"
"2021-08-15 00:02:02","644000","1000","503569916","898710","623","0","","0"
"2021-08-16 00:02:03","645000","1000","504441750","871834","624","1","","0"
"2021-08-17 00:02:03","646000","1000","505368941","927191","625","1","","0"
"2021-08-18 00:02:02","647000","1000","506510988","1142047","625","0","","0"
"2021-08-19 00:02:02","648000","1000","507522203","1011215","626","1","","0"
"2021-08-20 00:02:01","649000","1000","508460233","938030","626","0","","0"
"2021-08-21 00:02:02","650000","1000","509358598","898365","627","1","","0"
"2021-08-22 00:02:07","651000","1000","510098182","739584","628","1","","0"
"2021-08-23 00:02:02","653000","2000","511218529","1120347","629","1","","0"
"2021-08-24 00:02:02","654000","1000","512603057","1384528","630","1","","0"
"2021-08-25 00:02:02","656000","2000","514225784","1622727","631","1","","0"
"2021-08-26 00:02:03","657000","1000","515417870","1192086","631","0","","0"
"2021-08-27 00:02:01","658000","1000","516680792","1262922","632","1","","0"
"2021-08-28 00:02:02","659000","1000","517581810","901018","633","1","","0"
"2021-08-29 00:02:02","660000","1000","518534578","952768","634","1","","0"
"2021-08-30 00:02:02","662000","2000","519684524","1149946","635","1","","0"
"2021-08-31 00:02:02","663000","1000","520570288","885764","636","1","","0"
"2021-09-01 00:02:03","663000","0","521961442","1391154","636","0","","0"
"2021-09-02 00:02:02","664000","1000","522867870","906428","637","1","","0"
"2021-09-03 00:02:03","665000","1000","523634794","766924","638","1","","0"
"2021-09-04 00:02:02","666000","1000","524479568","844774","638","0","","0"
"2021-09-05 00:02:02","667000","1000","525222769","743201","639","1","","0"
"2021-09-06 00:02:02","668000","1000","526124474","901705","640","1","","0"
"2021-09-07 00:02:01","668000","0","526957360","832886","641","1","","0"
"2021-09-08 00:02:02","669000","1000","527723410","766050","641","0","","0"
"2021-09-09 00:02:02","670000","1000","528649907","926497","640","-1","","0"
"2021-09-10 00:02:02","671000","1000","529310130","660223","641","1","","0"
"2021-09-11 00:02:02","673000","2000","529986134","676004","643","2","","0"
"2021-09-12 00:02:02","674000","1000","531082068","1095934","643","0","","0"
"2021-09-13 00:02:02","676000","2000","532486340","1404272","644","1","","0"
"2021-09-14 00:02:03","677000","1000","533762464","1276124","645","1","","0"
"2021-09-15 00:02:02","678000","1000","534640921","878457","646","1","","0"
"2021-09-16 00:02:02","679000","1000","535680443","1039522","647","1","","0"
"2021-09-17 00:02:02","680000","1000","536504302","823859","647","0","","0"
"2021-09-18 00:02:02","680000","0","537322741","818439","648","1","","0"
"2021-09-19 00:02:02","681000","1000","538072043","749302","649","1","","0"
"2021-09-20 00:02:02","682000","1000","539144067","1072024","649","0","","0"
"2021-09-21 00:02:02","683000","1000","540241484","1097417","650","1","","0"
"2021-09-22 00:02:02","684000","1000","541374997","1133513","651","1","","0"
"2021-09-23 00:02:03","685000","1000","542192290","817293","651","0","","0"
"2021-09-24 00:02:02","686000","1000","543310144","1117854","652","1","","0"
"2021-09-25 00:02:03","687000","1000","544421087","1110943","653","1","","0"
"2021-09-26 00:02:02","688000","1000","545272445","851358","653","0","","0"
"2021-09-27 00:02:02","689000","1000","545272445","0","655","2","","0"
"2021-09-28 00:02:02","690000","1000","547169326","1896881","654","-1","","0"
"2021-09-29 00:02:02","690000","0","547568163","398837","655","1","","0"
"2021-09-30 00:02:02","691000","1000","548334253","766090","656","1","","0"
"2021-10-01 00:02:03","691000","0","549035106","700853","657","1","","0"
"2021-10-02 00:02:03","692000","1000","549752006","716900","658","1","","0"
"2021-10-03 00:02:02","693000","1000","549752006","0","659","1","","0"
"2021-10-04 00:02:02","693000","0","551465222","1713216","659","0","","0"
"2021-10-05 00:02:02","694000","1000","552335643","870421","658","-1","","0"
"2021-10-06 00:02:02","695000","1000","553058646","723003","660","2","","0"
"2021-10-07 00:02:01","696000","1000","553316565","257919","661","1","","0"
"2021-10-08 00:02:02","697000","1000","554355618","1039053","661","0","","0"
"2021-10-09 00:02:02","698000","1000","555285178","929560","662","1","","0"
"2021-10-10 00:02:02","699000","1000","556098112","812934","664","2","","0"
"2021-10-11 00:02:02","701000","2000","557487678","1389566","665","1","","0"
"2021-10-12 00:02:02","702000","1000","558478780","991102","666","1","","0"
"2021-10-13 00:02:02","703000","1000","559848622","1369842","666","0","","0"
"2021-10-14 00:02:01","704000","1000","560817913","969291","667","1","","0"
"2021-10-15 00:02:02","705000","1000","561639401","821488","668","1","","0"
"2021-10-16 00:02:02","705000","0","562615977","976576","668","0","","0"
"2021-10-17 00:02:03","706000","1000","563400509","784532","669","1","","0"
"2021-10-18 00:02:02","707000","1000","564336067","935558","669","0","","0"
"2021-10-19 00:02:02","708000","1000","565075393","739326","669","0","","0"
"2021-10-20 00:02:01","708000","0","565088079","12686","670","1","","0"
"2021-10-21 00:02:02","709000","1000","565495278","407199","670","0","","0"
"2021-10-22 00:02:01","709000","0","565991837","496559","672","2","","0"
"2021-10-23 00:02:02","709000","0","565991837","0","673","1","","0"
"2021-10-24 00:02:02","710000","1000","567104119","1112282","673","0","","0"
"2021-10-25 00:02:02","710000","0","567714559","610440","673","0","","0"
"2021-10-26 00:02:02","711000","1000","568211102","496543","674","1","","0"
"2021-10-27 00:02:02","711000","0","568749397","538295","673","-1","","0"
"2021-10-28 00:02:01","712000","1000","569290781","541384","674","1","","0"
"2021-10-29 00:02:03","712000","0","569787860","497079","675","1","","0"
"2021-10-30 00:02:02","713000","1000","570199844","411984","676","1","","0"
"2021-10-31 00:02:02","713000","0","570765311","565467","677","1","","0"
"2021-11-01 00:02:03","714000","1000","571509095","743784","678","1","","0"
"2021-11-02 00:02:02","715000","1000","572310180","801085","678","0","","0"
"2021-11-03 00:02:03","715000","0","572852601","542421","678","0","","0"
"2021-11-04 00:02:02","716000","1000","573361544","508943","680","2","","0"
"2021-11-05 00:02:02","716000","0","574169585","808041","680","0","","0"
"2021-11-06 00:02:02","717000","1000","574686235","516650","681","1","","0"
"2021-11-07 00:02:02","717000","0","575407105","720870","682","1","","0"
"2021-11-08 00:02:02","718000","1000","575926946","519841","681","-1","","0"
"2021-11-09 00:02:02","718000","0","576715201","788255","682","1","","0"
"2021-11-10 00:02:02","719000","1000","577594878","879677","683","1","","0"
"2021-11-11 00:02:02","720000","1000","577493967","-100911","683","0","","0"
"2021-11-12 00:02:03","721000","1000","578278938","784971","684","1","","0"
"2021-11-13 00:02:03","722000","1000","579087201","808263","685","1","","0"
"2021-11-14 00:02:02","722000","0","579775165","687964","686","1","","0"
"2021-11-15 00:02:02","723000","1000","580523101","747936","686","0","","0"
"2021-11-16 00:02:02","723000","0","581387992","864891","687","1","","0"
"2021-11-17 00:02:02","724000","1000","581974280","586288","687","0","","0"
"2021-11-18 00:02:02","724000","0","582603673","629393","688","1","","0"
"2021-11-19 00:02:02","725000","1000","583192118","588445","688","0","","0"
"2021-11-20 00:02:02","726000","1000","583810653","618535","689","1","","0"
"2021-11-21 00:02:02","727000","1000","584388717","578064","689","0","","0"
"2021-11-22 00:02:02","728000","1000","585336509","947792","691","2","","0"
"2021-11-23 00:02:02","728000","0","586210446","873937","692","1","","0"
"2021-11-24 00:02:03","729000","1000","586811145","600699","692","0","","0"
"2021-11-25 00:02:02","729000","0","587424845","613700","693","1","","0"
"2021-11-26 00:02:02","730000","1000","587811568","386723","693","0","","0"
"2021-11-27 00:02:02","730000","0","588226969","415401","695","2","","0"
"2021-11-28 00:02:02","730000","0","588675036","448067","695","0","","0"
"2021-11-29 00:02:02","730000","0","589197079","522043","696","1","","0"
"2021-11-30 00:02:02","731000","1000","589712837","515758","696","0","","0"
"2021-12-01 00:02:03","731000","0","590036929","324092","696","0","","0"
"2021-12-02 00:02:02","731000","0","590335348","298419","697","1","","0"
"2021-12-03 00:02:03","731000","0","590502716","167368","698","1","","0"
"2021-12-04 00:02:01","731000","0","590882415","379699","699","1","","0"
"2021-12-05 00:02:02","731000","0","591217181","334766","699","0","","0"
"2021-12-06 00:02:03","731000","0","591606080","388899","700","1","","0"
"2021-12-07 00:02:02","731000","0","592023236","417156","701","1","","0"
"2021-12-08 00:02:02","732000","1000","592293299","270063","701","0","","0"
"2021-12-09 00:02:02","732000","0","592550551","257252","702","1","","0"
"2021-12-10 00:02:02","732000","0","592789396","238845","701","-1","","0"
"2021-12-11 00:02:02","732000","0","593005127","215731","703","2","","0"
"2021-12-12 00:02:02","732000","0","593401575","396448","703","0","","0"
"2021-12-13 00:02:01","732000","0","593645880","244305","704","1","","0"
"2021-12-14 00:02:02","732000","0","593960232","314352","704","0","","0"
"2021-12-15 00:02:02","732000","0","594212886","252654","704","0","","0"
"2021-12-16 00:02:02","733000","1000","594440376","227490","706","2","","0"
"2021-12-17 00:02:02","733000","0","594727366","286990","706","0","","0"
"2021-12-18 00:02:01","733000","0","594993164","265798","707","1","","0"
"2021-12-19 00:02:01","733000","0","595225044","231880","708","1","","0"
"2021-12-20 00:02:01","733000","0","595542224","317180","706","-2","","0"
"2021-12-21 00:02:02","733000","0","596003869","461645","708","2","","0"
"2021-12-22 00:02:02","733000","0","596110070","106201","709","1","","0"
"2021-12-23 00:02:03","734000","1000","596478296","368226","710","1","","0"
"2021-12-24 00:02:02","734000","0","597018455","540159","710","0","","0"
"2021-12-25 00:02:01","735000","1000","597541309","522854","710","0","","0"
"2021-12-26 00:02:01","735000","0","597966522","425213","712","2","","0"